Location: Ripley
(48.3812°N, 115.4473°W)
Time: 21:47:32
(UTC+00:00)

EO-79 - Pass Details

Date: 07 July 2022
Orbit: 588 x 603 km, 98.0° (Epoch: 11 August)

Event Time Altitude Azimuth Distance (km) Brightness Sun altitude
Rises 09:59:17 0° 9° (N) 2,862 ? -13.1°
Reaches altitude 10° 10:01:30 10° 4° (N) 1,956 ? -12.9°
Maximum altitude 10:05:37 50° 289° (WNW) 774 ? -12.6°
Enters shadow 10:08:29 18° 220° (SW) 1,477 ? -12.3°
